Weather Roundup
Issued by NWS Chicago, IL

Home | Current Version | Previous Version | Graphics & Text | Print | Product List | Glossary On
Versions: 1 2 3 4 5 6 7 8 9 10 11 12 13 14 15 16 17 18 19 20 21 22 23 24 25 26 27 28 29 30 31 32 33 34 35 36 37 38 39 40 41 42 43 44 45 46 47 48 49 50
000
NZUS59 KLOT 041202
HRRLOT

CHICAGO AREA WEATHER ROUNDUP
NATIONAL WEATHER SERVICE CHICAGO/ROMEOVILLE IL
700 AM CDT TUE AUG 04 2015

NOTE: "FAIR" INDICATES FEW OR NO CLOUDS BELOW 12,000 FEET WITH NO
SIGNIFICANT WEATHER AND/OR OBSTRUCTIONS TO VISIBILITY.

* THESE STATIONS ARE NOT UNDER NWS QUALITY CONTROL. THEY ALSO MAY NOT
  REPORT WEATHER SUCH AS PRECIPITATION OR FOG.

ILZ005-006-012>014-019>023-041300-
NORTHEAST ILLINOIS

CITY           SKY/WX    TMP DP  RH WIND       PRES   REMARKS
OHARE          MOSUNNY   63  57  81 W5        29.95R
6HR MIN TEMP:  61; 6HR MAX TEMP:  67;

MIDWAY         MOSUNNY   66  57  72 SW3       29.95R
6HR MIN TEMP:  64; 6HR MAX TEMP:  71;

AURORA         SUNNY     57  54  89 CALM      29.97R
6HR MIN TEMP:  54; 6HR MAX TEMP:  59;

WAUKEGAN       SUNNY     63  56  78 VRB3      29.94R
6HR MIN TEMP:  57; 6HR MAX TEMP:  63;

DUPAGE AIRPORT SUNNY     60  56  86 CALM      29.96R
6HR MIN TEMP:  57; 6HR MAX TEMP:  65;

WHEELING       SUNNY     64  54  69 CALM      29.97R
6HR MIN TEMP:  61; 6HR MAX TEMP:  67;

NORTHERLY IS     N/A     69  55  60 W6          N/A
$$

WIZ051-052-058>065-066-070>072-041300-
SOUTHEAST WISCONSIN

CITY           SKY/WX    TMP DP  RH WIND       PRES   REMARKS
MILWAUKEE      MOSUNNY   65  52  62 SW5       29.93R
6HR MIN TEMP:  61; 6HR MAX TEMP:  68;

KENOSHA*       SUNNY     59  56  89 W3        29.95R
RACINE*        SUNNY     63  53  70 W7        29.95R
WAUKESHA       SUNNY     55  50  82 CALM      29.95R
$$

INZ001>003-010>013-019-020-041300-
NORTHWEST INDIANA

CITY           SKY/WX    TMP DP  RH WIND       PRES   REMARKS
GARY*          MOSUNNY   63  59  88 CALM      29.96R
MICHIGAN CITY* NOT AVBL
RENSSELAER*    NOT AVBL
$$

LMZ740>746-041300-
SOUTHERN LAKE MICHIGAN

STATION/POSITION TIME  SKY/WX   TEMP WIND        PRES    VSBY
                                AIR  DIR/SP/G
                 (UTC)          (F)  (DEG/KT/KT) (MB)    (MI)
HARRISON CRIB    1100            68  270/  8/  9   N/A
BURNHAM HARBOR   1200            69  270/  6/  7   N/A
CALUMET HARBOR   1100            65  240/  3/  4   N/A
BURNS HARBOR     1100            64  190/  6/  7 1014.6R
MICHIGAN CITY    1100            63  150/  4/  4   N/A
$$

ABBREVIATIONS USED IN REMARKS
   TC - TEMPERATURE IN CELSIUS
  WCI - WIND CHILL INDEX
   HX - HEAT INDEX
  VSB - VISIBILITY
$$


USA.gov is the U.S. government's official web portal to all federal, state and local government web resources and services.